VOE2NK LFMT-LFRS

Flight info

Callsign VOE2NK
Flight time 1h 1m
Altitude 34000
Route BRUSC DCT GAI DCT SECHE DCT UVELI DCT CNA DCT MANAK
Aircraft A320/M-SDE3FGHIRWY/LB1

Departure

Time 2026-04-28 08:36
Airport Montpellier-Méditerranée Airport (LFMT)

Arrival

Time 2026-04-28 09:38
Airport Nantes Atlantique Airport (LFRS)
Time Latitude Longitude Altitude Speed Heading
2026-04-28 08:07 43.57956 3.95994 15 ft 0 kts 214°
2026-04-28 08:09 43.57957 3.95995 15 ft 0 kts 214°
2026-04-28 08:30 43.57963 3.96001 15 ft 3 kts 218°
2026-04-28 08:31 43.57978 3.96019 15 ft 3 kts 233°
2026-04-28 08:31 43.57988 3.96043 15 ft 3 kts 253°
2026-04-28 08:31 43.57992 3.96069 15 ft 3 kts 279°
2026-04-28 08:31 43.57987 3.96091 15 ft 0 kts 304°
2026-04-28 08:33 43.57989 3.96086 15 ft 4 kts 304°
2026-04-28 08:33 43.58032 3.96000 15 ft 15 kts 298°
2026-04-28 08:34 43.58064 3.95888 16 ft 12 kts 300°
2026-04-28 08:34 43.58108 3.95804 15 ft 10 kts 307°
2026-04-28 08:34 43.58161 3.95763 17 ft 8 kts 359°
2026-04-28 08:34 43.58210 3.95812 15 ft 13 kts 60°
2026-04-28 08:35 43.58269 3.95912 13 ft 14 kts 21°
2026-04-28 08:35 43.58364 3.95956 11 ft 14 kts 19°
2026-04-28 08:35 43.58385 3.96026 13 ft 7 kts 121°
2026-04-28 08:35 43.58323 3.96145 14 ft 42 kts 125°
2026-04-28 08:36 43.58015 3.96756 16 ft 111 kts 124°
2026-04-28 08:36 43.57477 3.97830 158 ft 146 kts 125°
2026-04-28 08:36 43.56922 3.98949 818 ft 142 kts 126°
2026-04-28 08:36 43.56351 4.00076 1361 ft 144 kts 125°
2026-04-28 08:37 43.55771 4.01222 1870 ft 148 kts 125°
2026-04-28 08:37 43.55137 4.02473 2111 ft 171 kts 126°
2026-04-28 08:37 43.54297 4.03857 2228 ft 204 kts 146°
2026-04-28 08:37 43.52872 4.04336 2545 ft 227 kts 189°
2026-04-28 08:38 43.51422 4.03298 2948 ft 251 kts 227°
2026-04-28 08:38 43.50666 4.01095 3632 ft 263 kts 258°
2026-04-28 08:38 43.50510 3.98564 4495 ft 268 kts 269°
2026-04-28 08:38 43.50561 3.95974 5366 ft 272 kts 272°
2026-04-28 08:39 43.50640 3.93357 6249 ft 275 kts 271°
2026-04-28 08:39 43.50681 3.90707 7101 ft 278 kts 270°
2026-04-28 08:39 43.50812 3.88046 7949 ft 281 kts 280°
2026-04-28 08:39 43.51389 3.85469 8800 ft 284 kts 292°
2026-04-28 08:40 43.52145 3.82944 9679 ft 286 kts 291°
2026-04-28 08:40 43.52884 3.80379 10357 ft 295 kts 290°
2026-04-28 08:40 43.53658 3.77638 10596 ft 318 kts 290°
2026-04-28 08:40 43.54484 3.74691 10842 ft 339 kts 290°
2026-04-28 08:41 43.55349 3.71615 11403 ft 348 kts 290°
2026-04-28 08:41 43.56232 3.68490 12101 ft 352 kts 290°
2026-04-28 08:41 43.57124 3.65334 12817 ft 355 kts 290°
2026-04-28 08:41 43.58025 3.62142 13539 ft 359 kts 290°
2026-04-28 08:42 43.58936 3.58921 14198 ft 362 kts 289°
2026-04-28 08:42 43.59853 3.55674 14828 ft 365 kts 289°
2026-04-28 08:42 43.60209 3.54412 15078 ft 366 kts 289°
2026-04-28 08:42 43.60335 3.53970 15160 ft 366 kts 289°
2026-04-28 08:43 43.61253 3.50726 15789 ft 369 kts 289°
2026-04-28 08:43 43.62199 3.47373 16440 ft 371 kts 289°
2026-04-28 08:43 43.63136 3.44041 17067 ft 374 kts 289°
2026-04-28 08:43 43.64078 3.40689 17688 ft 376 kts 289°
2026-04-28 08:44 43.65028 3.37306 18310 ft 379 kts 289°
2026-04-28 08:44 43.65983 3.33903 18850 ft 382 kts 289°
2026-04-28 08:44 43.66948 3.30463 19381 ft 385 kts 289°
2026-04-28 08:44 43.67913 3.27012 19929 ft 387 kts 289°
2026-04-28 08:45 43.68883 3.23530 20472 ft 389 kts 289°
2026-04-28 08:45 43.69856 3.20031 21008 ft 392 kts 289°
2026-04-28 08:45 43.70835 3.16496 21523 ft 395 kts 289°
2026-04-28 08:45 43.71818 3.12942 22036 ft 397 kts 289°
2026-04-28 08:46 43.72803 3.09367 22525 ft 399 kts 289°
2026-04-28 08:46 43.73797 3.05763 23000 ft 402 kts 289°
2026-04-28 08:46 43.74760 3.02132 23470 ft 403 kts 285°
2026-04-28 08:46 43.75462 2.98366 23871 ft 405 kts 282°
2026-04-28 08:47 43.76137 2.94573 24240 ft 407 kts 282°
2026-04-28 08:47 43.76812 2.90767 24621 ft 408 kts 282°
2026-04-28 08:47 43.77490 2.86945 24997 ft 410 kts 282°
2026-04-28 08:47 43.78167 2.83105 25368 ft 412 kts 282°
2026-04-28 08:48 43.78842 2.79254 25734 ft 413 kts 282°
2026-04-28 08:48 43.79519 2.75382 26096 ft 414 kts 282°
2026-04-28 08:48 43.80197 2.71498 26449 ft 416 kts 282°
2026-04-28 08:48 43.80877 2.67596 26795 ft 417 kts 282°
2026-04-28 08:49 43.81559 2.63686 27132 ft 419 kts 282°
2026-04-28 08:49 43.82244 2.59759 27456 ft 420 kts 282°
2026-04-28 08:49 43.82932 2.55821 27781 ft 422 kts 282°
2026-04-28 08:49 43.83622 2.51865 28104 ft 423 kts 282°
2026-04-28 08:50 43.84312 2.47893 28415 ft 425 kts 282°
2026-04-28 08:50 43.84998 2.43909 28719 ft 426 kts 281°
2026-04-28 08:50 43.85683 2.39907 29035 ft 428 kts 281°
2026-04-28 08:50 43.86369 2.35893 29334 ft 429 kts 281°
2026-04-28 08:51 43.86835 2.33167 29530 ft 430 kts 281°
2026-04-28 08:51 43.87524 2.29140 29793 ft 431 kts 281°
2026-04-28 08:51 43.88215 2.25102 30150 ft 429 kts 281°
2026-04-28 08:51 43.88902 2.21085 30471 ft 428 kts 281°
2026-04-28 08:52 43.89585 2.17084 30763 ft 426 kts 281°
2026-04-28 08:52 43.90266 2.13086 31077 ft 425 kts 281°
2026-04-28 08:52 43.90939 2.09100 31373 ft 424 kts 281°
2026-04-28 08:52 43.91612 2.05118 31674 ft 423 kts 281°
2026-04-28 08:53 43.92283 2.01149 31969 ft 423 kts 281°
2026-04-28 08:53 43.92952 1.97175 32266 ft 422 kts 281°
2026-04-28 08:53 43.93615 1.93218 32556 ft 421 kts 281°
2026-04-28 08:53 43.94274 1.89257 32851 ft 421 kts 281°
2026-04-28 08:54 43.94933 1.85308 33155 ft 420 kts 282°
2026-04-28 08:54 43.95841 1.81458 33451 ft 422 kts 290°
2026-04-28 08:54 43.97143 1.77795 33748 ft 423 kts 294°
2026-04-28 08:54 43.98514 1.74173 33992 ft 423 kts 294°
2026-04-28 08:55 43.99885 1.70557 34037 ft 424 kts 294°
2026-04-28 08:55 44.02625 1.63318 34049 ft 423 kts 294°
2026-04-28 08:56 44.05369 1.56028 34047 ft 423 kts 294°
2026-04-28 08:56 44.08069 1.48829 34050 ft 423 kts 294°
2026-04-28 08:57 44.10799 1.41531 34048 ft 423 kts 294°
2026-04-28 08:57 44.13507 1.34272 34043 ft 422 kts 294°
2026-04-28 08:58 44.16207 1.27006 34050 ft 422 kts 294°
2026-04-28 08:58 44.18907 1.19734 34046 ft 422 kts 294°
2026-04-28 08:59 44.21596 1.12467 34040 ft 422 kts 293°
2026-04-28 08:59 44.24276 1.05205 34043 ft 421 kts 293°
2026-04-28 09:00 44.26946 0.97948 34043 ft 421 kts 293°
2026-04-28 09:00 44.29611 0.90685 34044 ft 420 kts 293°
2026-04-28 09:01 44.32274 0.83411 34049 ft 420 kts 293°
2026-04-28 09:01 44.34934 0.76145 34050 ft 420 kts 293°
2026-04-28 09:02 44.37587 0.68874 34053 ft 420 kts 293°
2026-04-28 09:02 44.40228 0.61587 34047 ft 420 kts 293°
2026-04-28 09:03 44.43205 0.54531 34047 ft 427 kts 305°
2026-04-28 09:03 44.47751 0.49053 34043 ft 440 kts 325°
2026-04-28 09:04 44.53299 0.45282 34033 ft 444 kts 329°
2026-04-28 09:04 44.58929 0.41546 34030 ft 445 kts 329°
2026-04-28 09:05 44.64521 0.37816 34049 ft 445 kts 329°
2026-04-28 09:05 44.70121 0.34075 34051 ft 446 kts 328°
2026-04-28 09:06 44.75726 0.30326 34047 ft 446 kts 328°
2026-04-28 09:06 44.81333 0.26567 34054 ft 446 kts 328°
2026-04-28 09:07 44.86939 0.22804 34055 ft 446 kts 328°
2026-04-28 09:07 44.92549 0.19030 34059 ft 447 kts 328°
2026-04-28 09:08 44.98152 0.15246 34059 ft 446 kts 328°
2026-04-28 09:08 45.03753 0.11463 34060 ft 446 kts 328°
2026-04-28 09:09 45.09345 0.07676 34058 ft 445 kts 328°
2026-04-28 09:09 45.14925 0.03893 34061 ft 444 kts 328°
2026-04-28 09:10 45.20492 0.00107 34062 ft 444 kts 327°
2026-04-28 09:10 45.26049 -0.03685 34059 ft 443 kts 327°
2026-04-28 09:11 45.31600 -0.07477 34064 ft 442 kts 327°
2026-04-28 09:11 45.37139 -0.11277 34064 ft 442 kts 327°
2026-04-28 09:12 45.42672 -0.15074 34070 ft 441 kts 327°
2026-04-28 09:12 45.48225 -0.18894 34072 ft 441 kts 327°
2026-04-28 09:13 45.53747 -0.22703 34073 ft 440 kts 327°
2026-04-28 09:13 45.59266 -0.26513 34080 ft 440 kts 327°
2026-04-28 09:14 45.64762 -0.30352 34076 ft 438 kts 324°
2026-04-28 09:14 45.69643 -0.35284 34069 ft 428 kts 315°
2026-04-28 09:15 45.74312 -0.40556 34064 ft 428 kts 315°
2026-04-28 09:15 45.78979 -0.45834 34059 ft 428 kts 315°
2026-04-28 09:16 45.83659 -0.51121 33733 ft 429 kts 315°
2026-04-28 09:16 45.86022 -0.53799 32441 ft 438 kts 315°
2026-04-28 09:16 45.88433 -0.56543 31209 ft 444 kts 315°
2026-04-28 09:16 45.90861 -0.59313 30069 ft 448 kts 315°
2026-04-28 09:17 45.93308 -0.62097 28886 ft 448 kts 315°
2026-04-28 09:17 45.95748 -0.64871 27821 ft 447 kts 316°
2026-04-28 09:17 45.98183 -0.67641 26905 ft 444 kts 316°
2026-04-28 09:17 46.00594 -0.70390 26089 ft 440 kts 316°
2026-04-28 09:18 46.02985 -0.73119 25318 ft 436 kts 316°
2026-04-28 09:18 46.05352 -0.75822 24565 ft 432 kts 317°
2026-04-28 09:18 46.07694 -0.78499 23858 ft 429 kts 317°
2026-04-28 09:18 46.10026 -0.81168 23090 ft 426 kts 317°
2026-04-28 09:19 46.12329 -0.83812 22353 ft 421 kts 317°
2026-04-28 09:19 46.14609 -0.86435 21677 ft 417 kts 318°
2026-04-28 09:19 46.16896 -0.89068 21019 ft 413 kts 318°
2026-04-28 09:19 46.19124 -0.91637 20382 ft 409 kts 318°
2026-04-28 09:20 46.21335 -0.94183 19770 ft 405 kts 318°
2026-04-28 09:20 46.23528 -0.96711 19173 ft 401 kts 318°
2026-04-28 09:20 46.25695 -0.99212 18610 ft 397 kts 319°
2026-04-28 09:20 46.27844 -1.01698 18019 ft 394 kts 319°
2026-04-28 09:21 46.29975 -1.04168 17389 ft 391 kts 319°
2026-04-28 09:21 46.32087 -1.06621 16782 ft 388 kts 319°
2026-04-28 09:21 46.34195 -1.09071 16208 ft 386 kts 319°
2026-04-28 09:21 46.36278 -1.11496 15574 ft 384 kts 319°
2026-04-28 09:22 46.38337 -1.13893 15050 ft 381 kts 319°
2026-04-28 09:22 46.40409 -1.16300 14478 ft 378 kts 319°
2026-04-28 09:22 46.42457 -1.18678 13937 ft 376 kts 319°
2026-04-28 09:22 46.44487 -1.21041 13349 ft 373 kts 319°
2026-04-28 09:23 46.46497 -1.23387 12811 ft 368 kts 320°
2026-04-28 09:23 46.48479 -1.25704 12276 ft 364 kts 320°
2026-04-28 09:23 46.50436 -1.27993 11718 ft 359 kts 320°
2026-04-28 09:23 46.52372 -1.30258 11166 ft 355 kts 320°
2026-04-28 09:24 46.53641 -1.31746 10813 ft 353 kts 320°
2026-04-28 09:24 46.55515 -1.33943 10644 ft 339 kts 320°
2026-04-28 09:24 46.57310 -1.36050 10518 ft 325 kts 320°
2026-04-28 09:24 46.59083 -1.38052 10398 ft 312 kts 326°
2026-04-28 09:25 46.60986 -1.39445 10272 ft 302 kts 340°
2026-04-28 09:25 46.62971 -1.40253 10154 ft 292 kts 344°
2026-04-28 09:25 46.64905 -1.40983 9978 ft 283 kts 344°
2026-04-28 09:25 46.66815 -1.41712 9603 ft 284 kts 345°
2026-04-28 09:26 46.68718 -1.42440 9190 ft 283 kts 345°
2026-04-28 09:26 46.70610 -1.43165 8905 ft 280 kts 345°
2026-04-28 09:26 46.72487 -1.43891 8527 ft 278 kts 345°
2026-04-28 09:26 46.74351 -1.44627 8140 ft 277 kts 345°
2026-04-28 09:27 46.78030 -1.46098 7172 ft 271 kts 346°
2026-04-28 09:27 46.79837 -1.46822 6597 ft 267 kts 347°
2026-04-28 09:27 46.81611 -1.47531 6012 ft 263 kts 347°
2026-04-28 09:28 46.83367 -1.48231 5373 ft 261 kts 348°
2026-04-28 09:28 46.85078 -1.48914 5102 ft 250 kts 347°
2026-04-28 09:28 46.86721 -1.49570 5071 ft 237 kts 348°
2026-04-28 09:28 46.88279 -1.50191 5073 ft 229 kts 348°
2026-04-28 09:29 46.89810 -1.50824 5078 ft 230 kts 343°
2026-04-28 09:29 46.91074 -1.52230 5016 ft 237 kts 306°
2026-04-28 09:29 46.91548 -1.54550 4688 ft 245 kts 270°
2026-04-28 09:29 46.91324 -1.57032 4355 ft 246 kts 264°
2026-04-28 09:30 46.91147 -1.59522 4030 ft 246 kts 269°
2026-04-28 09:30 46.91106 -1.62016 3781 ft 245 kts 274°
2026-04-28 09:30 46.91194 -1.64488 3498 ft 243 kts 277°
2026-04-28 09:30 46.91398 -1.66927 3150 ft 241 kts 282°
2026-04-28 09:31 46.91714 -1.69315 2992 ft 235 kts 287°
2026-04-28 09:31 46.92119 -1.71593 2999 ft 226 kts 290°
2026-04-28 09:31 46.92592 -1.73735 2988 ft 216 kts 294°
2026-04-28 09:31 46.93217 -1.75668 2981 ft 204 kts 320°
2026-04-28 09:32 46.94392 -1.76590 2993 ft 188 kts
2026-04-28 09:32 46.95608 -1.76149 3013 ft 182 kts 36°
2026-04-28 09:32 46.96669 -1.75131 3007 ft 184 kts 32°
2026-04-28 09:32 46.97796 -1.74215 3006 ft 182 kts 31°
2026-04-28 09:33 46.98928 -1.73366 3002 ft 182 kts 28°
2026-04-28 09:33 47.00039 -1.72568 3031 ft 171 kts 27°
2026-04-28 09:33 47.01067 -1.71849 2926 ft 157 kts 29°
2026-04-28 09:33 47.02000 -1.71167 2769 ft 144 kts 30°
2026-04-28 09:34 47.02872 -1.70514 2568 ft 139 kts 31°
2026-04-28 09:34 47.03722 -1.69874 2411 ft 137 kts 33°
2026-04-28 09:34 47.04570 -1.69233 2252 ft 140 kts 31°
2026-04-28 09:34 47.05425 -1.68588 2030 ft 137 kts 32°
2026-04-28 09:35 47.06260 -1.67955 1861 ft 134 kts 32°
2026-04-28 09:35 47.07086 -1.67329 1698 ft 134 kts 32°
2026-04-28 09:35 47.07909 -1.66704 1500 ft 132 kts 31°
2026-04-28 09:35 47.08721 -1.66088 1327 ft 132 kts 30°
2026-04-28 09:36 47.09538 -1.65468 1151 ft 133 kts 29°
2026-04-28 09:36 47.10348 -1.64849 973 ft 131 kts 29°
2026-04-28 09:36 47.11168 -1.64212 768 ft 133 kts 30°
2026-04-28 09:36 47.11991 -1.63587 625 ft 133 kts 25°
2026-04-28 09:37 47.12820 -1.62979 405 ft 134 kts 27°
2026-04-28 09:37 47.13645 -1.62350 235 ft 134 kts 26°
2026-04-28 09:37 47.14462 -1.61725 99 ft 127 kts 27°
2026-04-28 09:37 47.15128 -1.61219 88 ft 84 kts 27°
2026-04-28 09:38 47.15496 -1.60937 88 ft 37 kts 27°
2026-04-28 09:38 47.15715 -1.60770 85 ft 34 kts 26°
2026-04-28 09:38 47.15831 -1.60656 83 ft 14 kts 63°
2026-04-28 09:38 47.15818 -1.60540 89 ft 8 kts 124°
2026-04-28 09:39 47.15786 -1.60489 93 ft 6 kts 138°
2026-04-28 09:39 47.15743 -1.60442 90 ft 10 kts 146°
2026-04-28 09:39 47.15693 -1.60387 90 ft 9 kts 139°
2026-04-28 09:39 47.15651 -1.60331 90 ft 8 kts 139°
2026-04-28 09:40 47.15629 -1.60277 92 ft 6 kts 72°
2026-04-28 09:40 47.15660 -1.60240 90 ft 7 kts 34°
2026-04-28 09:40 47.15683 -1.60216 91 ft 0 kts 35°